Regional Weather Roundup
Issued by NWS Jackson, KY

Home | Current Version | Previous Version | Graphics & Text | Print | Product List | Glossary On
Versions: 1 2 3 4 5 6 7 8 9 10 11 12 13 14 15 16 17 18 19 20 21 22 23 24 25 26 27 28 29 30 31 32 33 34 35 36 37 38 39 40 41 42 43 44 45 46 47 48 49 50
000
ASUS43 KJKL 180205
RWRJKL

EAST KENTUCKY HOURLY WEATHER ROUNDUP
NATIONAL WEATHER SERVICE JACKSON KY
1000 PM EDT WED SEP 17 2014

NOTE: "FAIR" INDICATES FEW OR NO CLOUDS BELOW 12,000 FEET WITH
NO SIGNIFICANT WEATHER AND/OR OBSTRUCTIONS TO VISIBILITY.

* THESE REPORTS ARE NOT UNDER NWS QUALITY CONTROL AND MAY NOT
  REPORT WEATHER SUCH AS PRECIPITATION AND FOG.

KYZ079-080-083-085-087-088-110-112-115-119-120-180300
...EASTERN KENTUCKY...

CITY           SKY/WX    TMP DP  RH WIND       PRES   REMARKS
JACKSON        PTCLDY    61  53  75 CALM      30.00S
LONDON         CLEAR     60  55  83 CALM      29.98F
MONTICELLO*    CLEAR     58  56  93 CALM      29.98F
WILLIAMSBURG*  CLEAR     57  57 100 CALM      29.98
MIDDLESBORO*   CLEAR     58  56  94 CALM      30.00S
HARLAN APT*    CLEAR     59  59 100 MISG      30.01S
BLACK MTN*       N/A     52  52 100 SW3         N/A
PIKEVILLE APT* CLEAR     59  54  82 CALM      30.01R
BIG SANDY*     PTCLDY    57  56  95 CALM      30.01R
MOREHEAD APT*  CLOUDY    59  54  82 CALM      30.01S
$$

KYZ035-036-041-042-044-050-067-078-099-180300
...CENTRAL KENTUCKY...

CITY           SKY/WX    TMP DP  RH WIND       PRES   REMARKS
MT STERLING*   PTCLDY    55  54  94 CALM      30.00S
FLEMING/MASON* PTCLDY    60  51  72 NE6       30.00S
DANVILLE*      CLEAR     54  54 100 CALM      29.98F
RICHMOND*      CLEAR     59  52  77 NE3       29.97S
LEXINGTON      CLEAR     59  53  80 CALM      29.99R
FRANKFORT      CLEAR     56  53  90 CALM      29.97S
$$

KYZ091>093-OHZ055-061-077-WVZ005-015-034-035-042-180300
...SOUTHERN OHIO/WEST VIRGINIA...

CITY           SKY/WX    TMP DP  RH WIND       PRES   REMARKS
COVINGTON      PTCLDY    56  50  80 NW3       30.00R
COLUMBUS       PTCLDY    60  48  64 CALM      29.99R
DAYTON         CLEAR     56  49  77 CALM      30.01R
WILMINGTON     CLEAR     51  48  89 NE5       30.00S
HUNTINGTON     MOCLDY    58  57  97 CALM      29.99R
CHARLESTON     CLOUDY    63  61  93 CALM      29.98R
PINEVILLE*     MOCLDY    59  59 100 MISG      30.06R FOG
BECKLEY        CLOUDY    60  56  86 CALM      30.02S
BLUEFIELD      MOCLDY    61  57  87 W3        30.04R
$$

VAZ002-007-008-TNZ017-027-036-066-071-180300
...SOUTHWEST VIRGINIA/EAST TENNESSEE...

CITY           SKY/WX    TMP DP  RH WIND       PRES   REMARKS
WISE*          CLEAR     55  55 100 CALM      30.05R
JONESVILLE*    CLEAR     57  57 100 CALM      30.02S
ABINGDON*      CLEAR     59  57  91 CALM      30.02R
BRISTOL        PTCLDY    60  53  77 CALM      29.99R
KNOXVILLE      PTCLDY    65  57  75 CALM      29.97R
OAK RIDGE      CLEAR     63  58  83 CALM      29.99S
CROSSVILLE     PTCLDY    62  54  74 E5        29.98F
NASHVILLE      CLOUDY    65  58  78 CALM      29.98R
$$

...KEY TO REMARKS...
VSB - VISIBILITY IN MILES
WCI - WIND CHILL INDEX
HX  - HEAT INDEX

$$


USA.gov is the U.S. government's official web portal to all federal, state and local government web resources and services.